This is the latest recevied weather packets stored in our database for station/object W0AVQ. If no packets are shown the sender has not sent any weather packets the latest 10 day(s).
| Time | Temp. | Humidity | Pressure | Rain* | Wind** | Luminosity | Snow |
|---|---|---|---|---|---|---|---|
| 1777302254 | 22.22° C | 96% | 1011.2 hPa | 0 mm | - | 194 W/m² | - |
| 1777301951 | 21.67° C | 97% | 1011.3 hPa | 0 mm | - | 172 W/m² | - |
| 1777301649 | 21.67° C | 99% | 1011.1 hPa | 0 mm | - | 166 W/m² | - |
| 1777301346 | 21.11° C | 99% | 1010.9 hPa | 0 mm | - | 200 W/m² | - |
| 1777301042 | 20.56° C | 99% | 1010.6 hPa | 0 mm | - | 232 W/m² | - |
| 1777300740 | 20.56° C | 99% | 1011 hPa | 0 mm | - | 138 W/m² | - |
| 1777300437 | 20.56° C | 99% | 1011.1 hPa | 0 mm | - | 185 W/m² | - |
| 1777300135 | 20° C | 99% | 1011.1 hPa | 0 mm | - | 197 W/m² | - |
| 1777299831 | 20° C | 99% | 1011 hPa | 0 mm | - | 125 W/m² | - |
| 1777299529 | 19.44° C | 99% | 1011 hPa | 0 mm | - | 134 W/m² | - |
| 1777299226 | 19.44° C | 99% | 1010.8 hPa | 0 mm | - | 113 W/m² | - |
| 1777298923 | 19.44° C | 99% | 1011 hPa | 0 mm | - | 88 W/m² | - |
| 1777298621 | 18.89° C | 99% | 1010.8 hPa | 0 mm | - | 99 W/m² | - |
| 1777298317 | 18.89° C | 99% | 1010.9 hPa | 0 mm | - | 42 W/m² | - |
| 1777298012 | 18.89° C | 99% | 1011 hPa | 0 mm | - | 32 W/m² | - |
| 1777297708 | 18.89° C | 99% | 1011.3 hPa | 0 mm | - | 22 W/m² | - |
| 1777297407 | 18.89° C | 99% | 1011.2 hPa | 0 mm | - | 16 W/m² | - |
| 1777297103 | 18.89° C | 99% | 1011.2 hPa | 0 mm | - | 16 W/m² | - |
| 1777296800 | 18.89° C | 99% | 1011.1 hPa | 0 mm | - | 12 W/m² | - |
| 1777296496 | 18.89° C | 99% | 1011 hPa | 10.67 mm | - | 7 W/m² | - |
| 1777296191 | 18.89° C | 99% | 1010.5 hPa | 10.67 mm | - | 1 W/m² | - |
| 1777295888 | 18.89° C | 99% | 1010.6 hPa | 0 mm | - | 5 W/m² | - |
| 1777295586 | 18.89° C | 99% | 1010.6 hPa | 0 mm | - | 41 W/m² | - |
| 1777295283 | 18.89° C | 99% | 1010.7 hPa | 0 mm | - | 46 W/m² | - |
| 1777294981 | 18.89° C | 99% | 1010.5 hPa | 0 mm | - | 44 W/m² | - |
* Rain latest hour (hover to see other rain measurements)
** Current wind speed in m/s (hover to see current wind gust speed)